Temperature
16 18 18 18 19 19 18 17 16 17 18 19 19 20 21 23 23 22 22 22 22 22 21 20 20 19 18 17 17 17 16 16 16 16 15 15 16 16 16 16 15 15 15 15
16 18 17 17 18 18 18 18 18 18 18 19 20 21 21 22 23 22 22 22 22 22 21 21 20 20 19 18 17 17 16 16 15 15 15 15 15 15 15 15 15 15 15 15
14 16 16 16 17 18 18 19 19 18 19 19 19 19 21 22 23 23 23 22 22 21 20 20 19 19 19 19 18 17 17 16 16 15 15 15 15 15 15 15 15 15 15 15
13 15 15 17 17 18 18 19 19 19 19 19 19 21 22 23 23 22 22 21 21 20 19 19 18 18 18 18 18 17 17 16 16 15 15 15 15 15 15 15 15 14 14 14
13 14 15 17 18 18 18 19 20 20 20 20 20 20 20 22 22 22 22 21 20 19 18 17 17 18 18 18 17 17 17 16 16 16 15 15 15 15 15 15 14 14 14 13
13 14 14 16 18 19 19 19 20 20 20 20 19 18 18 21 21 21 20 20 19 18 17 16 16 16 16 16 16 16 16 16 16 16 15 15 15 14 14 14 14 13 13 13
13 13 15 17 18 19 18 19 21 22 22 22 19 20 21 20 20 20 19 18 18 17 16 16 15 15 15 15 15 14 15 15 15 15 15 14 14 14 14 13 13 13 13 12
13 14 15 18 18 18 19 21 22 23 23 23 22 21 20 19 19 19 19 18 16 16 15 15 14 14 14 14 13 13 13 13 14 14 14 13 13 13 13 13 13 13 12 12
14 15 17 17 17 18 19 21 23 23 23 22 21 20 19 19 18 18 17 16 15 15 14 14 14 14 14 13 13 12 12 12 12 12 13 13 13 13 13 12 12 12 12 12
13 15 16 16 18 18 20 22 23 23 22 22 21 20 19 19 18 17 16 16 15 14 14 14 14 14 13 13 12 12 12 11 11 11 11 12 12 12 12 12 12 12 12 12
12 14 15 16 16 17 18 21 23 22 22 22 21 20 19 18 17 17 16 16 15 15 14 14 14 13 13 13 12 12 11 11 11 11 11 11 11 12 12 12 12 12 12 12
12 13 12 13 15 16 17 20 22 22 22 21 21 21 19 18 17 17 16 16 16 15 14 14 14 14 13 12 12 12 11 11 11 11 11 11 11 11 11 11 11 11 11 12
13 13 12 13 14 16 17 19 22 22 22 21 21 21 20 19 17 17 17 16 16 15 14 14 14 13 13 12 12 11 11 11 11 11 11 11 11 11 11 11 11 11 11 11
12 12 12 13 15 16 17 19 21 22 22 21 21 20 20 19 17 17 17 17 16 15 14 14 14 13 13 12 12 11 11 11 11 11 11 11 11 11 11 11 10 11 11 11
12 12 13 14 15 16 17 19 21 22 22 21 21 20 19 19 18 17 17 17 16 15 15 14 14 13 13 12 12 11 11 11 11 11 11 11 11 11 11 10 10 10 10 10
12 13 14 14 15 16 17 18 20 22 22 22 21 20 20 19 18 18 17 17 16 16 15 15 14 14 13 12 12 11 11 11 11 11 11 11 11 11 11 11 10 10 10 10
12 13 13 14 15 16 17 18 20 21 22 22 21 21 20 19 18 18 17 17 17 16 16 15 14 14 13 12 12 11 11 11 11 10 10 11 11 11 10 10 10 10 10 10
12 13 13 14 15 15 17 19 20 21 22 22 21 20 19 19 18 18 18 17 17 16 15 15 14 13 13 12 11 11 10 10 10 10 10 10 10 10 10 10 10 10 10 10
11 13 14 15 15 16 17 18 20 21 21 22 21 20 20 19 19 18 18 17 17 16 16 15 14 13 12 12 11 10 10 10 10 10 10 10 10 10 10 10 10 10 10 10
10 12 14 16 17 18 18 19 20 20 21 21 21 21 20 19 19 18 18 18 17 17 16 15 14 13 12 11 11 10 10 10 10 10 10 10 10 10 10 10 10 10 10 10
9 11 14 17 18 19 19 20 20 21 21 21 21 21 20 20 19 19 18 18 17 16 15 14 14 13 12 11 10 10 10 10 10 10 10 10 10 10 10 10 10 10 10 10
9 10 14 17 19 20 20 20 21 21 20 21 21 21 20 20 19 19 19 18 18 16 15 14 13 13 12 11 10 10 10 9 9 9 10 10 10 10 10 10 10 10 10 10
9 10 13 17 19 20 20 20 20 20 20 20 21 20 20 20 19 19 19 18 17 16 15 14 13 12 12 11 10 10 9 9 9 9 9 10 10 10 10 9 9 10 10 10
10 11 13 16 18 20 20 20 20 20 20 20 20 20 20 20 19 19 19 18 17 15 14 13 13 12 11 10 10 9 9 9 9 9 9 9 9 9 9 9 9 9 9 9
10 11 13 16 17 19 20 21 20 20 20 20 20 20 20 20 20 19 18 17 16 15 14 13 12 12 10 10 9 9 9 9 8 8 8 8 8 8 9 9 9 9 9 8
10 10 12 14 16 18 19 20 20 20 20 20 20 20 20 20 19 19 18 16 15 14 14 13 12 11 10 10 9 9 9 9 9 8 8 8 8 8 8 8 9 9 9 9
10 11 12 14 16 17 19 19 20 20 20 20 20 19 19 19 18 18 17 16 15 14 14 13 12 11 10 10 9 9 9 9 9 9 9 8 8 8 8 8 9 9 9 8
Wind_Speed
7 8 5 6 9 8 7 8 10 10 11 12 9 8 9 8 7 9 10 10 13 13 11 10 11 12 12 11 10 10 9 9 9 7 7 6 6 6 5 4 5 4 3 3
5 5 4 7 11 11 11 9 10 12 14 12 9 6 6 5 7 10 11 12 13 12 11 11 12 13 13 11 11 11 11 11 9 8 8 8 8 7 6 5 4 3 2 2
5 5 7 9 10 10 8 9 11 15 15 9 5 6 8 9 9 9 9 8 7 6 6 7 8 10 12 12 11 12 13 12 11 10 10 9 8 7 6 5 3 2 2 2
2 2 7 10 7 7 8 12 13 12 10 9 9 8 7 8 9 9 8 7 6 6 5 3 1 4 7 8 10 12 12 12 12 11 11 10 9 9 7 5 4 3 3 3
3 2 8 12 8 4 5 9 10 9 7 7 6 4 2 1 6 8 8 8 7 7 6 5 6 3 4 4 6 9 10 10 11 12 12 11 11 9 7 5 4 4 3 4
4 2 5 10 8 7 5 7 8 1 6 7 8 4 4 1 6 9 9 8 8 7 7 7 6 6 8 6 4 3 6 8 10 12 13 12 10 8 5 4 5 4 5 5
4 3 8 11 9 4 1 6 5 2 6 8 7 6 7 9 8 9 9 9 8 8 7 6 5 8 9 8 6 3 2 2 5 7 8 9 8 6 5 5 5 5 5 4
4 4 8 5 8 4 6 6 1 3 5 6 6 9 11 11 9 10 9 8 8 7 6 5 6 9 8 6 3 5 5 5 4 4 5 6 7 6 6 7 6 5 4 4
4 7 8 11 12 17 16 10 3 3 4 7 9 9 9 9 9 8 8 7 5 6 5 3 4 7 7 4 5 6 5 3 3 4 4 4 5 6 5 5 4 4 4 4
6 11 14 17 16 20 14 7 6 6 7 9 9 9 10 10 9 8 7 6 6 5 4 2 3 3 5 5 5 5 4 3 2 3 3 2 3 5 5 5 4 4 4 4
6 10 14 13 14 20 20 7 5 5 5 8 10 11 11 10 10 9 7 6 6 6 5 5 5 4 3 3 4 4 3 3 3 3 3 3 3 2 3 4 5 5 4 4
6 6 9 17 23 25 25 15 4 4 2 4 8 12 12 11 11 9 8 7 5 5 5 4 3 4 4 4 5 4 3 3 2 2 2 3 4 4 8 4 5 6 5 3
8 11 16 23 28 28 22 17 6 5 5 4 5 10 13 10 11 10 9 8 8 7 4 2 4 5 5 5 5 4 3 2 2 2 2 2 3 4 3 3 5 5 5 5
13 15 21 25 26 25 24 21 11 6 5 6 7 9 12 10 10 11 11 10 9 6 5 6 6 6 5 5 5 5 4 3 3 2 2 2 3 4 4 4 2 2 3 5
18 19 22 25 24 22 18 15 10 7 5 4 7 11 14 14 14 13 11 9 6 6 7 7 7 6 5 7 7 5 4 2 2 1 1 1 1 2 2 3 4 3 3 3
19 20 20 20 20 17 13 12 10 9 7 7 9 12 15 15 14 12 10 8 8 8 9 8 8 7 7 8 7 4 3 3 2 1 2 2 2 2 3 4 5 4 3 3
19 21 20 18 17 16 14 13 12 10 7 9 12 12 12 12 11 10 9 8 9 9 9 8 8 7 7 7 6 4 3 2 2 2 2 1 2 3 3 4 4 3 2 3
15 18 18 17 17 18 17 15 12 9 7 9 11 11 13 13 13 11 8 7 7 6 7 8 9 8 7 6 5 4 4 3 2 1 1 2 3 3 3 3 3 3 2 2
17 15 18 20 20 17 17 15 12 9 7 7 12 14 13 14 12 9 8 9 10 8 7 9 13 9 7 6 6 4 4 4 2 2 2 4 4 3 3 3 3 3 3 2
24 20 17 19 20 17 16 13 11 9 7 8 11 12 11 11 10 10 10 10 9 8 10 11 10 8 7 7 7 4 3 4 4 3 4 4 4 3 3 3 3 3 3 2
27 26 22 17 17 16 14 12 10 10 7 9 12 14 13 11 10 11 10 7 5 8 12 13 9 7 6 6 6 4 3 4 4 4 4 3 3 3 2 2 2 2 2 2
27 26 26 18 14 14 12 10 9 8 6 8 11 11 11 10 10 9 7 6 9 14 11 8 7 9 9 8 5 5 4 5 4 4 3 3 2 2 2 2 2 1 1 1
24 24 25 19 11 9 7 6 7 7 7 8 10 11 12 11 10 9 7 5 9 15 11 8 11 14 12 7 5 5 5 5 5 4 4 3 3 3 3 3 3 2 2 2
24 25 25 20 11 4 5 6 6 5 6 7 9 11 12 10 5 3 6 13 15 15 10 12 16 15 11 5 6 5 5 5 4 4 4 4 3 4 4 4 3 2 2 3
23 23 22 20 13 7 5 4 3 4 5 5 7 9 9 9 8 9 10 12 16 15 10 14 18 14 8 6 6 6 5 5 5 4 4 4 4 4 4 4 4 4 4 3
20 19 19 17 12 8 4 2 4 5 6 6 5 6 7 7 11 11 10 11 13 13 10 8 9 9 6 6 6 6 5 5 4 4 3 3 4 4 4 4 4 3 3 2
19 17 16 16 14 10 5 3 5 6 8 10 8 6 8 10 10 11 12 10 10 9 9 8 7 6 6 6 6 6 5 4 3 3 3 3 4 4 4 4 3 3 3 2
Wind_Direction
238 257 238 234 254 258 238 208 210 237 240 248 256 269 282 260 201 181 182 184 189 195 198 195 187 186 186 186 181 176 179 189 194 189 184 188 206 217 218 217 221 219 205 214
285 284 298 267 251 248 252 242 232 241 251 246 244 241 261 241 191 190 194 195 201 205 204 202 197 194 195 194 189 184 190 203 200 186 187 196 206 211 213 213 206 190 199 238
278 310 343 284 249 237 235 229 230 240 244 242 221 218 225 220 204 197 186 182 189 200 205 213 216 207 204 203 191 193 201 205 199 191 190 197 197 194 198 197 188 192 226 252
270 12 261 258 263 249 263 265 247 239 233 211 207 211 219 198 172 158 142 128 118 108 95 74 112 200 204 196 190 198 202 199 195 192 194 189 186 191 192 186 195 218 254 271
152 235 280 288 282 246 251 277 269 247 218 184 168 101 350 221 146 140 132 128 119 112 100 61 37 52 117 155 187 199 202 194 192 191 192 188 191 193 187 185 202 217 232 246
132 168 258 266 290 326 344 311 309 148 160 158 136 137 226 152 102 103 105 107 106 99 85 63 40 63 79 87 109 184 211 201 193 192 191 190 190 186 183 189 212 230 233 231
149 204 260 268 294 313 202 265 296 137 156 162 181 195 164 129 117 115 112 109 101 87 73 61 70 81 74 70 70 72 89 136 182 193 192 186 180 174 185 194 206 226 226 227
165 212 252 340 347 306 271 281 204 142 162 162 152 128 130 134 132 125 119 113 105 97 86 75 92 97 90 85 90 84 79 82 100 137 180 186 172 170 178 179 185 191 199 222
220 242 287 335 310 295 294 271 207 145 155 143 139 148 146 148 143 132 128 132 130 124 114 100 113 120 122 150 136 109 93 83 86 103 117 146 161 162 163 164 164 178 190 213
276 281 309 314 317 316 293 232 180 170 162 158 165 163 157 155 147 141 145 149 149 144 155 202 207 168 161 166 144 118 113 114 114 114 118 144 159 159 157 166 172 185 198 210
279 301 318 315 325 332 324 286 174 186 180 165 163 167 167 162 156 159 167 167 160 170 201 236 241 227 201 159 128 104 96 116 121 124 117 99 93 95 176 185 178 179 201 201
253 287 297 295 303 314 318 298 240 174 177 169 165 171 166 163 162 167 175 173 178 197 219 252 233 205 180 151 133 119 97 108 125 121 101 100 110 80 51 73 118 135 139 138
250 277 281 286 295 303 308 297 254 184 186 187 165 163 161 159 165 171 180 181 195 211 214 193 159 160 157 144 135 135 133 131 132 128 132 144 151 153 142 82 60 66 71 81
277 280 279 279 285 290 295 294 271 221 197 182 163 156 156 153 163 178 190 197 200 195 181 166 158 165 170 153 136 129 121 114 120 127 150 161 170 172 169 164 148 84 54 78
265 259 264 274 280 283 290 294 273 244 226 187 161 158 160 163 175 191 201 199 181 174 175 166 162 166 150 133 128 129 128 126 120 103 117 153 161 146 147 153 143 139 131 98
269 267 268 274 279 285 293 301 283 251 223 189 174 174 173 173 180 192 199 185 170 182 181 170 166 161 141 132 134 141 160 165 143 95 66 44 58 108 127 134 140 151 166 165
264 264 269 276 283 290 291 294 287 263 225 191 185 177 168 166 177 193 200 192 184 182 172 165 160 151 141 138 142 157 171 172 136 98 97 92 113 124 135 140 150 163 189 186
266 253 259 270 280 288 291 293 293 271 228 202 175 164 167 174 186 197 195 167 152 148 158 155 147 141 135 131 132 141 155 158 144 138 145 143 136 127 126 139 151 150 133 130
323 277 263 264 266 270 275 273 268 262 236 183 169 176 180 185 189 183 159 152 154 161 171 158 148 140 135 128 117 115 140 144 128 104 110 127 120 114 120 130 136 142 152 166
338 325 294 271 263 259 258 256 251 243 224 184 179 180 181 184 176 164 162 171 179 172 161 156 148 145 145 139 121 105 118 131 119 107 109 121 133 141 149 160 161 168 185 202
335 331 317 287 263 253 247 247 239 227 218 185 181 186 186 180 168 162 163 176 182 150 150 149 147 146 146 144 129 117 113 118 118 112 114 126 140 153 166 174 180 192 209 219
332 331 325 304 263 248 246 237 220 214 206 189 188 180 166 162 164 164 167 166 157 150 144 141 141 149 151 141 131 130 127 122 116 115 113 116 132 149 148 150 167 185 201 204
328 328 327 318 282 247 240 222 209 199 185 179 175 169 166 167 165 160 163 151 147 146 141 143 150 149 142 134 133 128 124 123 122 122 120 113 110 123 125 120 123 134 142 140
327 327 325 322 310 270 244 241 223 204 187 175 175 169 159 150 142 127 130 142 144 136 139 151 150 144 134 131 131 127 124 123 124 126 120 111 106 107 109 108 104 101 101 97
324 325 327 329 326 307 271 246 172 157 148 146 151 152 153 152 149 143 138 141 142 136 140 156 152 139 127 127 128 129 132 141 142 139 137 135 132 126 117 109 102 97 97 94
323 324 322 319 314 304 288 192 160 149 134 122 116 114 110 110 120 129 133 136 140 139 141 143 138 127 126 133 138 140 144 150 150 146 146 140 140 136 130 126 124 123 115 103
321 322 323 326 330 327 307 222 169 157 150 143 133 125 126 127 129 131 133 137 139 140 142 139 134 129 135 144 148 149 149 150 149 146 139 135 141 143 146 142 134 125 117 93
Height
1485 1479 1479 1479 1477 1475 1478 1481 1488 1478 1472 1463 1457 1454 1451 1448 1446 1448 1451 1453 1454 1456 1458 1460 1461 1463 1464 1466 1468 1470 1472 1474 1476 1477 1479 1481 1482 1484 1486 1488 1489 1490 1490 1491
1484 1476 1476 1476 1471 1469 1468 1467 1468 1465 1461 1451 1450 1449 1448 1446 1445 1446 1448 1449 1451 1453 1455 1456 1458 1459 1461 1462 1464 1466 1468 1470 1472 1474 1475 1477 1479 1481 1483 1485 1486 1487 1487 1487
1491 1481 1478 1479 1464 1460 1459 1455 1456 1457 1450 1444 1445 1445 1445 1445 1444 1444 1445 1448 1450 1452 1453 1454 1455 1457 1458 1459 1461 1462 1464 1465 1468 1469 1471 1473 1476 1478 1480 1482 1483 1484 1484 1483
1491 1487 1493 1469 1453 1453 1453 1448 1444 1441 1438 1438 1439 1440 1441 1440 1441 1442 1445 1448 1450 1450 1451 1451 1452 1453 1454 1456 1457 1458 1459 1461 1463 1465 1466 1469 1471 1474 1477 1479 1480 1480 1481 1480
1492 1492 1484 1463 1451 1451 1451 1446 1434 1432 1431 1434 1436 1439 1440 1440 1441 1443 1446 1447 1448 1449 1449 1449 1449 1449 1449 1450 1452 1453 1454 1456 1458 1461 1463 1465 1467 1470 1473 1475 1476 1476 1477 1477
1490 1491 1489 1464 1448 1448 1449 1449 1432 1429 1430 1433 1437 1445 1443 1441 1442 1443 1445 1447 1448 1448 1448 1448 1447 1447 1447 1447 1448 1449 1450 1452 1454 1456 1458 1461 1463 1466 1469 1471 1472 1473 1473 1474
1487 1488 1477 1454 1449 1449 1459 1452 1435 1432 1432 1433 1435 1436 1437 1439 1441 1443 1445 1446 1447 1448 1448 1447 1447 1446 1446 1446 1446 1447 1448 1448 1450 1451 1453 1456 1460 1463 1466 1467 1468 1469 1470 1471
1482 1484 1474 1451 1452 1452 1450 1439 1435 1433 1433 1432 1432 1433 1435 1437 1440 1442 1444 1445 1446 1447 1446 1446 1447 1447 1446 1446 1447 1447 1447 1447 1448 1448 1450 1453 1457 1459 1461 1463 1465 1466 1467 1468
1475 1469 1454 1454 1455 1450 1446 1441 1435 1433 1432 1432 1432 1433 1434 1436 1439 1441 1443 1444 1445 1445 1446 1447 1447 1447 1447 1447 1447 1447 1447 1447 1447 1448 1449 1451 1454 1456 1458 1460 1462 1463 1464 1465
1470 1460 1455 1453 1449 1443 1437 1435 1433 1433 1432 1432 1432 1433 1434 1436 1438 1440 1442 1443 1443 1444 1446 1447 1448 1448 1448 1448 1447 1447 1447 1447 1447 1448 1449 1450 1452 1454 1456 1458 1459 1460 1460 1462
1470 1463 1455 1447 1447 1446 1443 1436 1433 1432 1432 1431 1431 1431 1433 1434 1437 1439 1441 1442 1443 1444 1445 1447 1447 1448 1448 1448 1447 1447 1446 1446 1446 1447 1448 1450 1452 1453 1455 1456 1457 1458 1458 1459
1469 1465 1463 1452 1446 1444 1443 1438 1433 1431 1430 1430 1430 1429 1430 1433 1436 1438 1440 1442 1443 1444 1445 1446 1446 1446 1447 1447 1446 1446 1445 1445 1445 1446 1447 1448 1450 1452 1453 1454 1455 1456 1456 1457
1464 1461 1460 1453 1446 1443 1442 1438 1434 1430 1429 1429 1428 1428 1429 1432 1434 1438 1440 1442 1443 1444 1444 1445 1445 1445 1445 1446 1445 1445 1444 1444 1444 1445 1446 1447 1449 1450 1451 1451 1452 1453 1453 1454
1463 1461 1457 1451 1447 1443 1441 1436 1433 1430 1428 1427 1427 1427 1428 1431 1434 1437 1439 1441 1442 1443 1443 1444 1444 1444 1444 1445 1445 1445 1445 1444 1444 1445 1446 1446 1447 1447 1448 1449 1449 1450 1451 1452
1456 1456 1453 1447 1443 1439 1436 1433 1430 1427 1426 1426 1425 1425 1427 1429 1432 1435 1437 1439 1441 1441 1442 1443 1443 1444 1444 1444 1445 1445 1445 1444 1444 1445 1445 1445 1445 1446 1447 1447 1448 1449 1450 1451
1448 1446 1445 1441 1437 1433 1432 1429 1427 1424 1423 1423 1423 1423 1425 1427 1430 1433 1436 1437 1438 1439 1440 1442 1443 1443 1443 1444 1444 1445 1445 1445 1445 1446 1446 1446 1446 1447 1447 1447 1448 1449 1449 1450
1438 1434 1433 1431 1428 1427 1426 1424 1422 1421 1420 1419 1420 1421 1424 1426 1429 1432 1434 1435 1436 1437 1439 1441 1442 1442 1442 1443 1443 1444 1445 1446 1446 1447 1447 1447 1447 1447 1447 1448 1448 1449 1450 1450
1424 1423 1424 1424 1423 1422 1420 1419 1419 1418 1417 1417 1418 1419 1422 1424 1426 1429 1431 1433 1434 1436 1438 1439 1440 1441 1441 1441 1442 1443 1445 1446 1446 1447 1447 1448 1448 1448 1448 1448 1449 1449 1450 1451
1416 1416 1416 1416 1416 1416 1415 1415 1415 1415 1415 1414 1415 1417 1419 1421 1424 1427 1429 1431 1432 1434 1435 1437 1438 1439 1440 1440 1442 1443 1445 1446 1446 1447 1447 1448 1449 1449 1449 1449 1450 1450 1450 1451
1412 1409 1408 1407 1407 1408 1408 1409 1410 1411 1411 1411 1412 1414 1416 1419 1422 1424 1426 1428 1429 1432 1434 1436 1437 1438 1439 1440 1441 1443 1444 1445 1446 1446 1447 1448 1449 1449 1450 1450 1451 1451 1451 1452
1408 1402 1400 1399 1399 1400 1402 1403 1404 1405 1405 1406 1407 1409 1413 1416 1419 1422 1424 1425 1428 1430 1432 1434 1436 1437 1438 1439 1441 1442 1444 1445 1446 1446 1447 1448 1449 1450 1450 1451 1451 1452 1452 1452
1406 1399 1394 1392 1392 1393 1395 1397 1398 1399 1400 1401 1402 1405 1409 1413 1417 1419 1421 1424 1426 1428 1430 1433 1435 1436 1437 1438 1440 1442 1443 1444 1445 1446 1447 1448 1449 1450 1451 1451 1451 1452 1452 1452
1406 1398 1392 1389 1389 1389 1391 1393 1394 1395 1396 1397 1399 1402 1406 1410 1413 1416 1419 1422 1424 1426 1429 1432 1434 1435 1436 1438 1440 1442 1443 1444 1445 1446 1447 1448 1449 1450 1450 1450 1451 1451 1451 1451
1404 1397 1392 1389 1388 1388 1389 1390 1391 1392 1393 1395 1397 1400 1404 1408 1411 1414 1417 1420 1422 1425 1428 1430 1432 1434 1436 1438 1440 1442 1443 1444 1445 1446 1447 1448 1449 1449 1450 1450 1450 1450 1450 1450
1405 1398 1392 1388 1387 1386 1387 1388 1388 1389 1390 1392 1395 1398 1402 1406 1409 1412 1415 1418 1421 1424 1426 1429 1431 1433 1436 1438 1441 1442 1443 1444 1445 1445 1446 1447 1448 1449 1449 1449 1449 1449 1449 1449
1405 1399 1394 1390 1388 1386 1386 1386 1387 1387 1388 1390 1393 1396 1400 1404 1408 1411 1414 1417 1420 1423 1425 1427 1430 1433 1436 1439 1440 1442 1443 1444 1446 1446 1447 1447 1448 1448 1449 1449 1448 1448 1448 1448
1403 1398 1393 1387 1385 1384 1384 1385 1385 1386 1388 1390 1392 1396 1399 1403 1407 1410 1413 1416 1419 1422 1424 1427 1430 1433 1436 1438 1440 1441 1443 1445 1446 1447 1448 1448 1449 1449 1449 1448 1448 1448 1448 1448